G7DPE Weather Reports


time (UTC)temp
C
wind
direction
speed
KPH
gust
KPH
rain 1hr
cm
rain 24hr
cm
rain mn
cm
humidity
%
barometer
mb
20260502123603 21 188 3.2 4.8 0.00 0.00 0.00 46 1018.6
20260502122703 20 145 4.8 12.9 0.00 0.00 0.00 48 1018.6
20260502121803 20 165 3.2 12.9 0.00 0.00 0.00 52 1018.8
20260502121118 20 274 1.6 6.4 0.00 0.00 0.00 47 1019.0
20260502115403 19 250 1.6 4.8 0.00 0.00 0.00 50 1019.4
20260502114503 19 162 3.2 9.7 0.00 0.00 0.00 51 1019.2
20260502113605 18 173 3.2 6.4 0.00 0.00 0.00 54 1019.6
20260502112705 18 153 1.6 4.8 0.00 0.00 0.00 53 1019.6
20260502111803 18 194 3.2 6.4 0.00 0.00 0.00 55 1019.4
20260502110903 18 216 1.6 6.4 0.00 0.00 0.00 53 1019.8
20260502110003 18 208 1.6 6.4 0.00 0.00 0.00 56 1020.0
20260502105616 18 242 1.6 6.4 0.00 0.00 0.00 57 1020.0
20260502104503 18 78 1.6 6.4 0.00 0.00 0.00 57 1020.2
20260502103603 18 174 3.2 6.4 0.00 0.00 0.00 57 1020.3
20260502102703 18 283 1.6 4.8 0.00 0.00 0.00 58 1020.2
20260502101803 18 176 1.6 4.8 0.00 0.00 0.00 60 1020.2
20260502100903 18 157 1.6 4.8 0.00 0.00 0.00 60 1020.3
20260502100216 18 148 1.6 3.2 0.00 0.00 0.00 58 1020.1
20260502090903 16 199 1.6 3.2 0.00 0.00 0.00 70 1020.9
20260502070903 10 225 0.0 1.6 0.00 0.00 0.00 89 1021.4
20260502070005 10 224 0.0 1.6 0.00 0.00 0.00 91 1021.4
20260502065617 10 243 0.0 3.2 0.00 0.00 0.00 92 1021.3
20260502064503 9 144 0.0 1.6 0.00 0.00 0.00 94 1021.3
20260502063603 9 154 0.0 1.6 0.00 0.00 0.00 95 1021.2
20260502062703 8 133 0.0 1.6 0.00 0.00 0.00 95 1021.4
20260502061804 8 0 0.0 0.0 0.00 0.00 0.00 95 1021.2
20260502060904 8 169 0.0 1.6 0.00 0.00 0.00 95 1021.4
20260502060005 8 245 0.0 1.6 0.00 0.00 0.00 95 1021.6
20260502055403 8 0 0.0 0.0 0.00 0.00 0.00 95 1021.2
20260502054503 8 0 0.0 0.0 0.00 0.00 0.00 95 1021.1
20260502053603 8 0 0.0 0.0 0.00 0.00 0.00 95 1021.4
20260502052916 8 0 0.0 0.0 0.00 0.00 0.00 95 1021.4
20260502051803 8 0 0.0 0.0 0.00 0.00 0.00 95 1021.4
20260502051119 8 0 0.0 0.0 0.00 0.00 0.00 95 1021.2
20260502050003 8 0 0.0 0.0 0.00 0.00 0.00 95 1020.9
20260502045618 8 283 0.0 1.6 0.00 0.00 0.00 95 1021.3
20260502044505 7 0 0.0 0.0 0.00 0.00 0.00 95 1021.2
20260502043605 7 0 0.0 0.0 0.00 0.00 0.00 95 1021.0
20260502042703 7 0 0.0 0.0 0.00 0.00 0.00 94 1021.3
20260502041803 7 0 0.0 0.0 0.00 0.00 0.00 94 1021.3
20260502041119 7 0 0.0 0.0 0.00 0.00 0.00 94 1021.2
20260502040003 7 0 0.0 0.0 0.00 0.00 0.00 94 1021.2
20260502035403 8 0 0.0 0.0 0.00 0.00 0.00 94 1021.3
20260502034503 8 0 0.0 0.0 0.00 0.00 0.00 94 1021.3
20260502033603 8 0 0.0 0.0 0.00 0.00 0.00 94 1021.7
20260502032703 8 242 0.0 3.2 0.00 0.00 0.00 94 1021.7
20260502031803 8 228 1.6 6.4 0.00 0.00 0.00 94 1021.7
20260502031117 8 217 0.0 3.2 0.00 0.00 0.00 94 1021.7
20260502030218 8 0 0.0 0.0 0.00 0.00 0.00 93 1021.7
20260502025617 8 0 0.0 0.0 0.00 0.00 0.00 93 1021.7
20260502024503 7 0 0.0 0.0 0.00 0.00 0.00 92 1021.4
20260502023604 7 0 0.0 0.0 0.00 0.00 0.00 92 1021.4
20260502022703 7 0 0.0 0.0 0.00 0.00 0.00 91 1021.7
20260502021803 7 0 0.0 0.0 0.00 0.00 0.00 91 1021.7
20260502020903 7 0 0.0 0.0 0.00 0.00 0.00 91 1021.6
20260502020003 8 0 0.0 0.0 0.00 0.00 0.00 90 1021.7
20260502015403 8 0 0.0 0.0 0.00 0.00 0.00 90 1021.8
20260502014503 8 0 0.0 0.0 0.00 0.00 0.00 89 1021.8
20260502013603 8 0 0.0 0.0 0.00 0.00 0.00 89 1021.9
20260502012703 8 0 0.0 0.0 0.00 0.00 0.00 88 1021.9
20260502012016 9 0 0.0 0.0 0.00 0.00 0.00 88 1022.0
20260502010903 10 0 0.0 0.0 0.00 0.00 0.00 87 1022.0
20260502010003 10 0 0.0 0.0 0.00 0.00 0.00 86 1022.3
20260502005403 10 0 0.0 0.0 0.00 0.00 0.00 85 1022.4
20260502004503 10 0 0.0 0.0 0.00 0.00 0.00 84 1022.3
20260502003605 11 0 0.0 0.0 0.00 0.00 0.00 83 1022.5
20260502002705 11 0 0.0 0.0 0.00 0.00 0.00 82 1022.6
20260502001803 11 0 0.0 0.0 0.00 0.00 0.00 82 1022.7
20260502000903 12 0 0.0 0.0 0.00 0.00 0.00 81 1022.8
20260502000218 12 218 0.0 1.6 0.00 0.00 0.00 81 1022.6
20260501235616 12 210 0.0 1.6 0.00 0.00 0.00 81 1022.8
20260501234718 12 0 0.0 0.0 0.00 0.00 0.00 80 1022.8
20260501233817 12 268 0.0 1.6 0.00 0.00 0.00 80 1022.8
20260501232916 12 264 0.0 1.6 0.00 0.00 0.00 79 1022.9
20260501232018 12 238 0.0 1.6 0.00 0.00 0.00 78 1022.9
20260501230903 12 246 0.0 1.6 0.00 0.00 0.00 78 1022.7
20260501230004 12 271 1.6 4.8 0.00 0.00 0.00 77 1022.9
20260501225403 13 288 1.6 4.8 0.00 0.00 0.00 77 1023.0
20260501224503 13 220 1.6 3.2 0.00 0.00 0.00 77 1023.1
20260501223603 13 204 1.6 3.2 0.00 0.00 0.00 79 1023.0
20260501222703 13 216 0.0 3.2 0.00 0.00 0.00 80 1022.9
20260501221803 13 203 0.0 1.6 0.00 0.00 0.00 80 1022.9
20260501220903 13 216 0.0 1.6 0.00 0.00 0.00 81 1022.8
20260501220003 12 0 0.0 0.0 0.00 0.00 0.00 83 1022.8
20260501215403 12 0 0.0 0.0 0.00 0.00 0.00 82 1022.7
20260501214505 13 0 0.0 0.0 0.00 0.00 0.00 80 1022.9
20260501213818 13 142 0.0 1.6 0.00 0.00 0.00 79 1023.0
20260501212704 14 231 0.0 1.6 0.00 0.00 0.00 78 1022.8
20260501212019 14 311 0.0 1.6 0.00 0.00 0.00 77 1022.9
20260501210903 14 210 0.0 1.6 0.00 0.00 0.00 77 1022.8
20260501210005 14 229 0.0 1.6 0.00 0.00 0.00 78 1022.6
20260501205403 14 0 0.0 0.0 0.00 0.00 0.00 78 1022.7
20260501204503 15 241 0.0 1.6 0.00 0.00 0.00 77 1022.8
20260501203603 15 234 0.0 1.6 0.00 0.00 0.00 77 1022.7
20260501202703 15 155 0.0 1.6 0.00 0.00 0.00 76 1022.8
20260501201803 15 167 0.0 1.6 0.00 0.00 0.00 76 1022.8
20260501200903 15 218 0.0 1.6 0.00 0.00 0.00 76 1022.8
20260501200217 16 224 0.0 1.6 0.00 0.00 0.00 74 1022.7
20260501195617 16 207 0.0 1.6 0.00 0.00 0.00 74 1022.6
20260501194503 16 202 1.6 3.2 0.00 0.00 0.00 73 1022.6
20260501193603 16 197 0.0 3.2 0.00 0.00 0.00 72 1022.6
20260501192917 16 210 1.6 4.8 0.00 0.00 0.00 72 1022.6
20260501191803 17 183 1.6 3.2 0.00 0.00 0.00 71 1022.3
20260501190903 17 226 1.6 4.8 0.00 0.00 0.00 70 1022.4
20260501190003 17 259 1.6 4.8 0.00 0.00 0.00 70 1022.4
20260501185617 17 265 1.6 4.8 0.00 0.00 0.00 70 1022.2
20260501184504 17 240 1.6 4.8 0.00 0.00 0.00 70 1022.2
20260501183603 18 232 1.6 4.8 0.00 0.00 0.00 70 1022.4
20260501182916 18 235 1.6 9.7 0.00 0.00 0.00 70 1022.1
20260501181803 18 225 3.2 6.4 0.00 0.00 0.00 69 1022.1
20260501180904 18 210 3.2 9.7 0.00 0.00 0.00 68 1022.1
20260501180003 20 233 3.2 4.8 0.00 0.00 0.00 66 1022.1
20260501175618 20 345 1.6 6.4 0.00 0.00 0.00 65 1022.0
20260501174503 19 267 1.6 9.7 0.00 0.00 0.00 66 1022.0
20260501173603 20 230 3.2 12.9 0.00 0.00 0.00 65 1022.2
20260501172703 20 209 3.2 12.9 0.00 0.00 0.00 66 1022.0
20260501171803 20 222 3.2 9.7 0.00 0.00 0.00 64 1022.0
20260501170903 21 258 1.6 9.7 0.00 0.00 0.00 63 1021.9
20260501170003 21 251 1.6 4.8 0.00 0.00 0.00 64 1021.9
20260501165403 21 253 3.2 4.8 0.00 0.00 0.00 59 1021.8
20260501164503 22 200 1.6 6.4 0.00 0.00 0.00 57 1021.9
20260501163603 22 294 3.2 11.3 0.00 0.00 0.00 57 1021.8
20260501162703 22 215 3.2 6.4 0.00 0.00 0.00 57 1021.9
20260501161803 22 249 1.6 9.7 0.00 0.00 0.00 56 1022.0
20260501161116 22 265 3.2 6.4 0.00 0.00 0.00 55 1022.0
20260501160003 22 259 1.6 4.8 0.00 0.00 0.00 57 1021.9
20260501155403 22 267 1.6 4.8 0.00 0.00 0.00 57 1021.9
20260501154503 21 231 3.2 11.3 0.00 0.00 0.00 58 1022.0
20260501153603 22 240 3.2 11.3 0.00 0.00 0.00 55 1022.2
20260501152703 23 214 4.8 12.9 0.00 0.00 0.00 53 1022.0
20260501152017 23 222 4.8 11.3 0.00 0.00 0.00 51 1021.9
20260501150903 24 211 4.8 12.9 0.00 0.00 0.00 47 1022.1
20260501150003 25 228 3.2 6.4 0.00 0.00 0.00 46 1022.0
20260501145403 24 234 3.2 6.4 0.00 0.00 0.00 47 1022.1
20260501144503 23 195 3.2 11.3 0.00 0.00 0.00 46 1022.1
20260501143603 23 94 3.2 11.3 0.00 0.00 0.00 44 1022.3